Baudette, MN

2:25 PM CDT on July 28, 2017 (GMT -0500)
Baudette International

Weather History for KBDE - October, 2012

Change the Weather History Date:

Thursday, October 4, 2012

  Actual Average Record
Temperature  
Mean Temperature 38 °F -  
Max Temperature 44 °F 60 °F 82 °F (2011)
Min Temperature 33 °F 37 °F 22 °F (1936)
Degree Days  
Heating Degree Days 26    
Moisture  
Dew Point 34 °F    
Average Humidity 90    
Maximum Humidity 93    
Minimum Humidity 79    
Precipitation  
Precipitation 0.98 in - - ()
Sea Level Pressure  
Sea Level Pressure 29.78 in    
Wind  
Wind Speed 17 mph (NW)    
Max Wind Speed 30 mph    
Max Gust Speed 43 mph    
Visibility 4 miles    
Events Fog , Rain , Snow    
Averages and records for this station are not official NWS values.
T = Trace of Precipitation, MM = Missing Value Source: NWS Daily Summary

Daily Weather History Graph

Daily Weather History Graph

Search for Another Location

Airport or City:

Trip Planner

Search our weather history database for the weather conditions in past years. The results will help you decide how hot, cold, wet, or windy it might be!

Date:

Astronomy

Oct. 04, 2012 Rise Set
Actual Time 7:23 AM CDT 6:50 PM CDT
Civil Twilight 6:51 AM CDT 7:21 PM CDT
Nautical Twilight 6:15 AM CDT 7:57 PM CDT
Astronomical Twilight 5:38 AM CDT 8:34 PM CDT
Moon 9:03 PM CDT (10/4) 12:03 PM CDT (10/4)
Length of Visible Light 12h 29m
Length of Day
11h 26m
Waning Gibbous, 82% of the Moon is Illuminated
Oct 4
Waning Gibbous
Oct 8
Last Quarter
Oct 15
New
Oct 21
First Quarter
Oct 29
Full

Hourly Weather History & Observations

Time (CDT) Temp. Windchill Dew Point Humidity Pressure Visibility Wind Dir Wind Speed Gust Speed Precip Events Conditions
12:53 AM 44.1 °F 37.4 °F 37.9 °F 79% 30.03 in 10.0 mi NNE 13.8 mph - 0.00 in Rain Light Rain
1:53 AM 44.1 °F 39.0 °F 37.9 °F 79% 30.01 in 10.0 mi NNE 9.2 mph - 0.00 in Rain Light Rain
2:53 AM 42.1 °F 34.5 °F 39.0 °F 89% 29.96 in 8.0 mi NNE 15.0 mph 20.7 mph 0.04 in Rain Light Rain
3:48 AM 42.8 °F 36.2 °F 39.2 °F 87% 29.90 in 5.0 mi NNE 12.7 mph 19.6 mph 0.10 in Rain Rain
3:53 AM 42.1 °F 34.2 °F 39.9 °F 92% 29.92 in 5.0 mi NNE 16.1 mph 20.7 mph 0.11 in Rain Rain
4:53 AM 41.0 °F 31.6 °F 39.0 °F 93% 29.86 in 6.0 mi NNE 20.7 mph 28.8 mph 0.07 in Rain Light Rain
5:53 AM 39.9 °F 31.4 °F 37.9 °F 93% 29.83 in 7.0 mi NNE 16.1 mph 27.6 mph 0.03 in Rain Rain
6:18 AM 39.2 °F 30.2 °F 37.4 °F 93% 29.80 in 7.0 mi NNE 17.3 mph 25.3 mph 0.03 in Rain Light Rain
6:53 AM 39.9 °F 32.9 °F 37.9 °F 93% 29.82 in 9.0 mi NNE 11.5 mph 21.9 mph 0.04 in Rain Light Rain
7:31 AM 39.2 °F 30.5 °F 37.4 °F 93% 29.75 in 5.0 mi NNE 16.1 mph 26.5 mph 0.04 in Rain Light Rain
7:49 AM 39.2 °F 30.8 °F 37.4 °F 93% 29.74 in 7.0 mi NNE 15.0 mph 24.2 mph 0.07 in Rain Light Rain
7:53 AM 39.9 °F 30.8 °F 37.9 °F 93% 29.76 in 8.0 mi NNE 18.4 mph 26.5 mph 0.08 in Rain Light Rain
8:53 AM 39.9 °F 31.4 °F 37.0 °F 89% 29.74 in 10.0 mi NNE 16.1 mph 23.0 mph 0.01 in   Overcast
9:53 AM 39.9 °F 31.4 °F 37.0 °F 89% 29.71 in 10.0 mi North 16.1 mph 24.2 mph 0.01 in Rain Light Rain
10:43 AM 39.2 °F 30.2 °F 37.4 °F 93% 29.66 in 2.0 mi North 17.3 mph - 0.04 in Rain Rain
10:53 AM 39.9 °F 31.8 °F 37.9 °F 93% 29.68 in 2.0 mi NNW 15.0 mph - 0.06 in Rain Rain
10:59 AM 39.2 °F 29.8 °F 37.4 °F 93% 29.65 in 1.8 mi NNW 18.4 mph 24.2 mph 0.02 in Rain Rain
11:05 AM 39.2 °F 30.2 °F 37.4 °F 93% 29.65 in 2.0 mi NNW 17.3 mph 24.2 mph 0.03 in Rain Rain
11:53 AM 39.0 °F 28.5 °F 37.0 °F 93% 29.68 in 2.0 mi NNW 23.0 mph 31.1 mph 0.11 in Rain Light Rain
12:53 PM 37.9 °F 27.1 °F 36.0 °F 93% 29.68 in 2.5 mi NNW 23.0 mph 33.4 mph 0.04 in Snow Light Snow
1:28 PM 37.4 °F 25.6 °F 33.8 °F 87% 29.65 in 3.0 mi NNW 26.5 mph 38.0 mph 0.04 in Rain Rain
1:53 PM 36.0 °F 24.4 °F 34.0 °F 93% 29.69 in 3.0 mi NW 23.0 mph 35.7 mph 0.07 in Rain Rain
2:05 PM 35.6 °F 23.2 °F 33.8 °F 93% 29.66 in 2.5 mi NW 26.5 mph 34.5 mph 0.02 in Rain Rain
2:19 PM 35.6 °F 23.0 °F 33.8 °F 93% 29.67 in 1.5 mi NW 27.6 mph 36.8 mph 0.05 in Rain Rain
2:26 PM 35.6 °F 22.7 °F 33.8 °F 93% 29.67 in 1.2 mi NW 28.8 mph 42.6 mph 0.07 in Snow Light Snow
2:37 PM 35.6 °F 22.7 °F 33.8 °F 93% 29.67 in 1.8 mi NW 28.8 mph 38.0 mph 0.09 in Snow Light Snow
2:53 PM 35.1 °F 22.5 °F 33.1 °F 92% 29.72 in 1.5 mi NW 26.5 mph 42.6 mph 0.12 in Snow Light Snow
3:08 PM 35.6 °F 23.4 °F 33.8 °F 93% 29.70 in 3.0 mi NW 25.3 mph 35.7 mph 0.02 in Snow Light Snow
3:16 PM 35.6 °F 22.7 °F 33.8 °F 93% 29.70 in 2.5 mi NW 28.8 mph 39.1 mph 0.03 in Snow Light Snow
3:27 PM 35.6 °F 23.4 °F 33.8 °F 93% 29.70 in 4.0 mi NW 25.3 mph 35.7 mph 0.04 in Rain Light Rain
3:53 PM 37.0 °F 24.5 °F 34.0 °F 89% 29.75 in 5.0 mi NW 29.9 mph 39.1 mph 0.06 in Rain Light Rain
4:53 PM 33.8 °F 23.9 °F 32.0 °F 93% 29.75 in 3.0 mi WNW 15.0 mph 33.4 mph N/A Snow Light Snow
4:58 PM 33.8 °F 24.3 °F 32.0 °F 93% 29.75 in 1.8 mi WNW 13.8 mph 33.4 mph 0.01 in Snow Light Snow
5:09 PM 33.8 °F 22.8 °F 32.0 °F 93% 29.76 in 1.2 mi WNW 18.4 mph 32.2 mph 0.01 in Snow Light Snow
5:27 PM 33.8 °F 26.4 °F 32.0 °F 93% 29.77 in 0.8 mi WNW 9.2 mph 27.6 mph 0.03 in Snow Light Snow
5:48 PM 33.8 °F 23.9 °F 32.0 °F 93% 29.78 in 0.5 mi WNW 15.0 mph 24.2 mph 0.05 in Fog , Snow Light Snow
5:53 PM 33.1 °F 22.6 °F 30.9 °F 92% 29.82 in 0.5 mi WNW 16.1 mph 31.1 mph 0.05 in Fog , Snow Light Snow
6:16 PM 33.8 °F 24.8 °F 30.2 °F 87% 29.79 in 0.8 mi WNW 12.7 mph 27.6 mph 0.01 in Snow Light Snow
6:32 PM 33.8 °F 24.3 °F 30.2 °F 87% 29.79 in 1.0 mi WNW 13.8 mph 31.1 mph 0.02 in Snow Light Snow
6:50 PM 33.8 °F 23.9 °F 30.2 °F 87% 29.80 in 1.5 mi WNW 15.0 mph 32.2 mph 0.03 in Snow Light Snow
6:53 PM 33.1 °F 23.0 °F 30.9 °F 92% 29.84 in 1.2 mi WNW 15.0 mph 25.3 mph 0.03 in Snow Light Snow
7:21 PM 33.8 °F 24.8 °F 30.2 °F 87% 29.80 in 1.8 mi WNW 12.7 mph 25.3 mph 0.01 in Snow Light Snow
7:29 PM 33.8 °F 23.5 °F 30.2 °F 87% 29.80 in 2.0 mi WNW 16.1 mph 26.5 mph 0.01 in Snow Light Snow
7:37 PM 33.8 °F 23.5 °F 30.2 °F 87% 29.81 in 3.0 mi WNW 16.1 mph 28.8 mph 0.02 in Snow Light Snow
7:53 PM 33.1 °F 22.6 °F 30.9 °F 92% 29.85 in 7.0 mi WNW 16.1 mph 32.2 mph 0.02 in   Overcast
8:29 PM 33.8 °F 22.8 °F 30.2 °F 87% 29.81 in 2.0 mi WNW 18.4 mph 27.6 mph 0.00 in Snow Light Snow
8:42 PM 33.8 °F 23.5 °F 30.2 °F 87% 29.81 in 1.8 mi WNW 16.1 mph 27.6 mph 0.01 in Snow Light Snow
8:51 PM 33.8 °F 24.3 °F 30.2 °F 87% 29.81 in 2.5 mi WNW 13.8 mph 32.2 mph N/A Snow Light Snow
8:53 PM 33.1 °F 23.9 °F 30.9 °F 92% 29.86 in 2.5 mi WNW 12.7 mph 32.2 mph 0.01 in Snow Light Snow
9:37 PM 33.8 °F 23.9 °F 30.2 °F 87% 29.82 in 4.0 mi WNW 15.0 mph 25.3 mph 0.00 in Snow Light Snow
9:53 PM 33.1 °F 22.6 °F 30.9 °F 92% 29.86 in 6.0 mi WNW 16.1 mph 28.8 mph 0.00 in   Overcast
10:48 PM 33.8 °F 23.9 °F 30.2 °F 87% 29.83 in 2.0 mi WNW 15.0 mph 29.9 mph 0.01 in Snow Light Snow
10:53 PM 33.1 °F 23.0 °F 30.9 °F 92% 29.87 in 2.0 mi WNW 15.0 mph 27.6 mph 0.01 in Snow Light Snow
11:11 PM 33.8 °F 24.3 °F 30.2 °F 87% 29.83 in 3.0 mi WNW 13.8 mph 26.5 mph 0.00 in Snow Light Snow
11:31 PM 33.8 °F 24.8 °F 30.2 °F 87% 29.84 in 2.0 mi WNW 12.7 mph 27.6 mph 0.00 in Snow Light Snow
11:53 PM 33.1 °F 22.2 °F 30.0 °F 89% 29.88 in 2.0 mi WNW 17.3 mph 29.9 mph 0.01 in Snow Light Snow